CAPE
790 827 457 643 358 734 765 1041 1307 1436 1689 1434 1577 1504 1619 1186 1642 1357 1468 1266 1534 1790
1120 871 984 981 1227 705 1014 1757 1905 1546 1797 1800 1461 1292 1624 1508 1785 1253 1305 1097 1846 1532
1440 1108 1172 1503 1603 1200 778 929 1129 1135 1745 1733 1704 1296 1507 1287 1373 1403 1492 1608 1157 1585
1785 1697 1582 1566 1755 1577 830 685 463 612 1056 1102 1331 1589 1389 1356 1292 1091 1287 1389 1766 1136
2042 1912 1797 1824 2115 1480 1087 962 929 723 402 869 898 1633 1714 1499 1459 1135 1031 1278 1529 1272
2094 2037 1840 1899 2109 2120 1876 1161 1045 1018 1124 944 1281 1742 1498 1335 1322 1553 1237 1457 1562 1659
618 1206 1816 2221 2165 2382 2298 2119 1816 1723 1527 1926 1841 1646 1967 1581 1251 1375 1408 1815 1970 1772
253 480 629 654 1655 1982 2125 2361 2058 1650 1723 2223 2087 1621 1885 1954 1878 1574 1474 1463 1668 1954
72 238 96 91 853 1512 1685 1832 2006 2150 2054 1842 1931 1998 1647 1797 1711 2121 1895 1593 1663 1986
115 65 165 248 537 943 1103 1484 1603 1506 1416 1711 2083 1834 1434 1281 1024 1670 1875 2067 1995 1667
129 134 220 305 429 561 760 987 1054 1179 1569 1562 1560 1753 1798 1771 1427 1312 1115 1383 2089 2057
71 82 84 122 306 263 428 515 593 683 768 1303 1372 1523 1736 1732 1745 1505 1409 1308 1100 1657
0 0 0 21 58 76 87 185 241 283 356 643 1097 1092 1168 1182 1344 1274 1286 1393 1382 1249
0 0 0 0 0 0 32 61 56 77 89 257 633 536 630 821 958 966 1180 1283 1374 1400
CIN
-41 -24 -40 -81 -150 -92 -30 -31 -80 -30 -14 -38 -24 -15 -21 -18 -35 -39 -53 -64 -75 -101
-22 -48 -66 -65 -87 -39 -40 -58 -76 -38 -26 -14 -30 -19 -14 -26 -23 -47 -55 -97 -51 -96
-30 -44 -53 -27 -21 -19 -76 -110 -36 -45 -30 -17 -20 -21 -22 -34 -17 -27 -33 -37 -59 -66
-30 -28 -38 -27 -33 -24 -17 -79 -39 -58 -27 -43 -35 -20 -34 -34 -22 -21 -32 -34 -21 -67
-40 -24 -20 -24 -16 -37 -30 -30 -26 -20 -38 -41 -48 -49 -17 -23 -31 -23 -48 -35 -24 -42
-11 -22 -22 -29 -23 -31 -33 -49 -40 -42 -29 -48 -92 -33 -21 -41 -41 -23 -26 -27 -22 -22
-39 -8 -11 -21 -23 -27 -28 -22 -20 -31 -44 -41 -21 -31 -20 -13 -46 -51 -42 -26 -18 -21
-84 -48 -32 -33 -8 -13 -24 -21 -19 -23 -32 -16 -5 -26 -24 -16 -18 -15 -11 -58 -60 -17
-13 -2 -18 -207 -9 -16 -2 -1 -4 -7 -12 -20 -14 -5 -16 -17 -24 -29 -13 -9 -44 -30
-0 -30 -45 -14 -39 -35 -16 -27 -13 -18 -27 -14 -8 -7 -9 -6 -9 -21 -15 -20 -13 -30
-24 -26 -18 -27 -37 -40 -34 -27 -20 -31 -9 -7 -14 -11 -11 -11 -15 -13 -12 -48 -31 -11
-22 -19 -37 -56 -75 -56 -40 -36 -15 -15 -25 -9 -19 -13 -6 -5 -4 -22 -19 -15 -22 -47
-0 -0 -0 -22 -39 -45 -74 -54 -67 -68 -42 -11 -3 -27 -22 -17 -7 -20 -32 -25 -18 -23
-0 -0 -0 -0 -0 -0 -21 -32 -56 -79 -64 -80 -10 -15 -31 -35 -22 -12 -29 -10 -6 -6
Wind_Speed
6 8 6 7 7 6 0 2 5 4 4 5 4 4 2 1 4 5 6 6 8 8
8 6 4 3 4 5 6 5 4 2 4 5 5 3 1 2 4 5 5 5 8 6
11 8 7 7 5 7 10 7 4 2 2 3 4 5 3 2 3 4 4 3 5 6
15 12 11 8 8 8 12 7 4 2 2 2 5 4 2 2 2 1 3 2 2 4
17 16 14 11 9 7 10 9 8 6 6 4 5 4 1 1 2 2 1 2 2 4
18 18 18 15 9 7 9 10 10 11 10 7 5 4 2 0 1 1 1 1 2 1
35 34 28 20 15 12 12 12 13 12 11 10 8 9 8 4 4 3 2 2 2 2
42 30 36 38 23 17 17 15 14 13 14 14 13 13 11 10 8 6 4 4 4 5
nan 20 nan nan 33 31 24 21 20 18 14 14 16 13 12 14 16 12 9 8 8 8
22 nan 27 14 30 29 29 29 26 24 19 18 19 15 16 19 20 19 17 16 14 13
23 22 14 21 24 24 23 27 28 28 27 24 23 19 19 18 23 23 21 21 21 19
nan nan nan 24 21 20 26 26 24 27 27 29 27 25 25 28 27 27 25 25 24 25
nan nan nan nan nan nan nan 25 28 27 29 28 30 29 26 31 34 31 29 28 28 24
nan nan nan nan nan nan nan nan nan nan nan 31 36 40 41 36 37 34 33 33 33 34
Wind_Direction
243 236 214 183 184 142 342 255 101 55 32 45 26 85 46 103 100 108 103 109 102 99
228 245 244 160 210 173 227 259 288 39 53 53 20 53 33 75 91 106 101 125 120 127
225 230 217 197 196 222 215 205 284 314 332 89 40 10 19 50 102 86 93 113 151 141
212 221 234 203 176 225 239 214 221 246 245 224 127 69 4 22 336 85 95 135 165 170
235 225 232 224 187 199 246 231 227 224 186 209 127 124 270 64 122 43 69 130 206 169
220 227 231 235 214 202 221 243 226 216 224 217 191 206 221 193 108 299 72 59 287 258
208 211 211 228 225 214 217 216 224 229 224 219 235 232 232 220 222 213 241 254 292 291
210 207 215 208 207 220 216 224 230 222 219 224 229 237 237 240 248 237 219 221 253 272
nan 251 nan nan 194 220 220 217 227 221 221 236 233 234 252 250 247 255 256 245 237 245
221 nan 235 238 206 210 216 220 222 224 220 220 233 230 230 254 247 244 251 255 254 250
246 249 237 228 222 216 224 229 232 230 228 227 233 235 234 230 242 251 252 248 256 259
nan nan nan 258 239 234 222 226 232 236 231 231 233 236 240 242 245 243 245 253 255 257
nan nan nan nan nan nan nan 240 239 240 234 231 232 230 236 250 252 252 252 251 254 260
nan nan nan nan nan nan nan nan nan nan nan 250 250 246 237 242 251 250 250 253 252 252